| time (UTC) | temp C | wind direction | speed KPH | gust KPH | rain 1hr cm | rain 24hr cm | rain mn cm | humidity % | barometer mb |
| 20260504151003 | 20 | 142 | 6.4 | 6.4 | 0.25 | 0.76 | 0.51 | 74 | 1019.0 |
| 20260504141003 | 19 | 142 | 6.4 | 6.4 | 0.25 | 0.76 | 0.51 | 74 | 1020.0 |
| 20260504081003 | 9 | 123 | 11.3 | 11.3 | 0.25 | 0.76 | 0.51 | 84 | 1018.0 |
| 20260504050003 | 11 | 134 | 12.9 | 12.9 | 0.25 | 0.76 | 0.51 | 81 | 1020.0 |
| 20260504045003 | 11 | 134 | 12.9 | 12.9 | 0.25 | 0.76 | 0.51 | 81 | 1020.0 |
| 20260504044003 | 11 | 134 | 12.9 | 12.9 | 0.25 | 0.76 | 0.51 | 81 | 1020.0 |
| 20260504042003 | 12 | 134 | 12.9 | 12.9 | 0.25 | 0.76 | 0.51 | 81 | 1019.0 |
| 20260504040005 | 12 | 134 | 12.9 | 12.9 | 0.25 | 0.76 | 0.51 | 81 | 1020.0 |
| 20260504035004 | 13 | 134 | 12.9 | 12.9 | 0.25 | 0.76 | 0.51 | 81 | 1020.0 |
| 20260504034002 | 13 | 134 | 12.9 | 12.9 | 0.25 | 0.76 | 0.51 | 81 | 1020.0 |
| 20260504031003 | 14 | 134 | 12.9 | 12.9 | 0.25 | 0.76 | 0.51 | 81 | 1021.0 |
| 20260504030003 | 14 | 134 | 12.9 | 12.9 | 0.25 | 0.76 | 0.51 | 81 | 1021.0 |
| 20260504025004 | 15 | 134 | 12.9 | 12.9 | 0.25 | 0.76 | 0.51 | 81 | 1021.0 |
| 20260504023003 | 15 | 134 | 12.9 | 14.5 | 0.25 | 0.76 | 0.51 | 81 | 1021.0 |
| 20260504021003 | 16 | 134 | 14.5 | 16.1 | 0.25 | 0.76 | 0.51 | 81 | 1021.0 |
| 20260504020006 | 16 | 134 | 16.1 | 17.7 | 0.25 | 0.76 | 0.51 | 81 | 1021.0 |
| 20260504015003 | 10 | 143 | 12.9 | 12.9 | 0.25 | 0.76 | 0.51 | 71 | 1021.0 |
| 20260504014004 | 10 | 143 | 12.9 | 12.9 | 0.25 | 0.76 | 0.51 | 71 | 1021.0 |
| 20260504012004 | 11 | 143 | 12.9 | 12.9 | 0.25 | 0.76 | 0.51 | 71 | 1020.0 |
| 20260504011004 | 11 | 143 | 12.9 | 12.9 | 0.25 | 0.76 | 0.51 | 71 | 1020.0 |
| 20260504010006 | 12 | 143 | 12.9 | 12.9 | 0.25 | 0.76 | 0.51 | 71 | 1021.0 |
| 20260504005008 | 12 | 143 | 12.9 | 12.9 | 0.25 | 0.76 | 0.51 | 71 | 1021.0 |
| 20260504004004 | 12 | 143 | 12.9 | 12.9 | 0.25 | 0.76 | 0.51 | 71 | 1021.0 |
| 20260504003004 | 13 | 143 | 12.9 | 12.9 | 0.25 | 0.76 | 0.51 | 71 | 1021.0 |
| 20260504000003 | 13 | 143 | 12.9 | 12.9 | 0.25 | 0.76 | 0.51 | 71 | 1021.0 |
| 20260503235004 | 13 | 143 | 12.9 | 12.9 | 0.25 | 0.76 | 0.51 | 71 | 1021.0 |
| 20260503234003 | 14 | 143 | 12.9 | 14.5 | 0.25 | 0.76 | 0.51 | 71 | 1021.0 |
| 20260503233003 | 15 | 143 | 14.5 | 16.1 | 0.25 | 0.76 | 0.51 | 71 | 1020.0 |
| 20260503232004 | 15 | 143 | 14.5 | 16.1 | 0.25 | 0.76 | 0.51 | 71 | 1020.0 |
| 20260503231003 | 15 | 143 | 16.1 | 17.7 | 0.25 | 0.76 | 0.51 | 71 | 1020.0 |
| 20260503230003 | 11 | 142 | 17.7 | 19.3 | 0.25 | 0.76 | 0.51 | 78 | 1021.0 |
| 20260503225005 | 11 | 142 | 17.7 | 19.3 | 0.25 | 0.76 | 0.51 | 78 | 1021.0 |
| 20260503224003 | 11 | 142 | 17.7 | 19.3 | 0.25 | 0.76 | 0.51 | 78 | 1021.0 |
| 20260503223004 | 12 | 142 | 17.7 | 19.3 | 0.25 | 0.76 | 0.51 | 78 | 1020.0 |
| 20260503222008 | 12 | 142 | 17.7 | 19.3 | 0.25 | 0.76 | 0.51 | 78 | 1020.0 |
| 20260503221008 | 12 | 142 | 17.7 | 19.3 | 0.25 | 0.76 | 0.51 | 78 | 1019.0 |
| 20260503220003 | 13 | 142 | 17.7 | 19.3 | 0.25 | 0.76 | 0.51 | 78 | 1020.0 |
| 20260503215007 | 13 | 142 | 17.7 | 19.3 | 0.25 | 0.76 | 0.51 | 78 | 1020.0 |
| 20260503214008 | 13 | 142 | 17.7 | 19.3 | 0.25 | 0.76 | 0.51 | 78 | 1019.0 |
| 20260503212003 | 14 | 142 | 17.7 | 19.3 | 0.25 | 0.76 | 0.51 | 78 | 1019.0 |
| 20260503211003 | 14 | 142 | 17.7 | 19.3 | 0.25 | 0.76 | 0.51 | 78 | 1019.0 |
| 20260503210005 | 15 | 142 | 17.7 | 19.3 | 0.25 | 0.76 | 0.51 | 78 | 1020.0 |
| 20260503205003 | 15 | 142 | 17.7 | 19.3 | 0.25 | 0.76 | 0.51 | 78 | 1020.0 |
| 20260503204002 | 12 | 145 | 17.7 | 19.3 | 0.25 | 0.76 | 0.51 | 79 | 1020.0 |
| 20260503203004 | 12 | 145 | 17.7 | 19.3 | 0.25 | 0.76 | 0.51 | 79 | 1020.0 |
| 20260503202003 | 13 | 145 | 17.7 | 19.3 | 0.25 | 0.76 | 0.51 | 79 | 1020.0 |
| 20260503201008 | 13 | 145 | 17.7 | 19.3 | 0.25 | 0.76 | 0.51 | 79 | 1020.0 |
| 20260503200003 | 13 | 145 | 17.7 | 20.9 | 0.25 | 0.76 | 0.51 | 79 | 1020.0 |
| 20260503195009 | 13 | 145 | 17.7 | 20.9 | 0.25 | 0.76 | 0.51 | 79 | 1020.0 |
| 20260503194003 | 14 | 145 | 19.3 | 22.5 | 0.25 | 0.76 | 0.51 | 79 | 1020.0 |
| 20260503193003 | 15 | 145 | 20.9 | 22.5 | 0.25 | 0.76 | 0.51 | 79 | 1020.0 |
| 20260503192004 | 15 | 145 | 20.9 | 22.5 | 0.25 | 0.76 | 0.51 | 79 | 1020.0 |
| 20260503191004 | 12 | 143 | 17.7 | 19.3 | 0.25 | 0.76 | 0.51 | 80 | 1020.0 |
| 20260503190005 | 12 | 143 | 17.7 | 19.3 | 0.25 | 0.76 | 0.51 | 80 | 1020.0 |
| 20260503185003 | 13 | 143 | 17.7 | 19.3 | 0.25 | 0.76 | 0.51 | 80 | 1020.0 |
| 20260503184003 | 13 | 143 | 17.7 | 19.3 | 0.25 | 0.76 | 0.51 | 80 | 1019.0 |
| 20260503183004 | 13 | 143 | 17.7 | 19.3 | 0.25 | 0.76 | 0.51 | 80 | 1019.0 |
| 20260503181003 | 14 | 143 | 17.7 | 20.9 | 0.25 | 0.76 | 0.51 | 80 | 1019.0 |
| 20260503180004 | 15 | 143 | 19.3 | 22.5 | 0.25 | 0.76 | 0.51 | 80 | 1020.0 |
| 20260503175004 | 15 | 143 | 19.3 | 22.5 | 0.25 | 0.76 | 0.51 | 80 | 1020.0 |
| 20260503174003 | 15 | 143 | 20.9 | 24.1 | 0.25 | 0.76 | 0.51 | 80 | 1020.0 |
| 20260503172003 | 13 | 139 | 24.1 | 25.7 | 0.25 | 0.76 | 0.51 | 74 | 1021.0 |
| 20260503171003 | 13 | 139 | 24.1 | 25.7 | 0.25 | 0.76 | 0.51 | 74 | 1021.0 |